Time,TemperatureF,DewpointF,PressureIn,WindDirection,WindDirectionDegrees,WindSpeedMPH,WindSpeedGustMPH,Humidity,HourlyPrecipIn,Conditions,Clouds,dailyrainin,SoftwareType,DateUTC
2013-01-09 00:00:00,56.0,54.0,30.25,East,100,3.0,-999.0,94,-99.99,,,-99.99,,2013-01-09 00:00:00,
2013-01-09 00:12:00,56.0,54.0,30.25,East,100,3.0,-999.0,94,-99.99,,,-99.99,,2013-01-09 00:12:00,
2013-01-09 00:22:00,56.0,54.0,30.25,East,100,3.0,-999.0,94,-99.99,,,-99.99,,2013-01-09 00:22:00,
2013-01-09 00:32:00,56.0,54.0,30.25,East,100,3.0,-999.0,94,-99.99,,,-99.99,,2013-01-09 00:32:00,
2013-01-09 00:42:00,56.0,54.0,30.25,East,100,3.0,-999.0,94,-99.99,,,-99.99,,2013-01-09 00:42:00,
2013-01-09 00:52:00,56.0,54.0,30.25,East,100,3.0,-999.0,94,-99.99,,,-99.99,,2013-01-09 00:52:00,
2013-01-09 02:00:00,55.0,53.0,30.22,ESE,120,1.0,-999.0,94,-99.99,,,-99.99,,2013-01-09 02:00:00,
2013-01-09 02:11:00,55.0,53.0,30.22,ESE,120,1.0,-999.0,94,-99.99,,,-99.99,,2013-01-09 02:11:00,
2013-01-09 02:22:00,55.0,53.0,30.22,ESE,120,1.0,-999.0,94,-99.99,,,-99.99,,2013-01-09 02:22:00,
2013-01-09 02:32:00,55.0,53.0,30.22,ESE,120,1.0,-999.0,94,-99.99,,,-99.99,,2013-01-09 02:32:00,
2013-01-09 02:42:00,55.0,53.0,30.22,ESE,120,1.0,-999.0,94,-99.99,,,-99.99,,2013-01-09 02:42:00,
2013-01-09 02:52:00,55.0,53.0,30.22,ESE,120,1.0,-999.0,94,-99.99,,,-99.99,,2013-01-09 02:52:00,
2013-01-09 06:00:00,56.0,54.0,30.17,SW,220,18.0,-999.0,92,-99.99,,,-99.99,,2013-01-09 06:00:00,
2013-01-09 06:11:00,56.0,54.0,30.17,SW,220,18.0,-999.0,92,-99.99,,,-99.99,,2013-01-09 06:11:00,
2013-01-09 06:22:00,56.0,54.0,30.17,SW,220,18.0,-999.0,92,-99.99,,,-99.99,,2013-01-09 06:22:00,
2013-01-09 06:32:00,56.0,54.0,30.17,SW,220,18.0,-999.0,92,-99.99,,,-99.99,,2013-01-09 06:32:00,
2013-01-09 06:42:00,56.0,54.0,30.17,SW,220,18.0,-999.0,92,-99.99,,,-99.99,,2013-01-09 06:42:00,
2013-01-09 06:52:00,56.0,54.0,30.17,SW,220,18.0,-999.0,92,-99.99,,,-99.99,,2013-01-09 06:52:00,
2013-01-09 07:00:00,56.0,54.0,30.18,SW,220,17.0,-999.0,93,-99.99,,,-99.99,,2013-01-09 07:00:00,
2013-01-09 07:11:00,56.0,54.0,30.18,SW,220,17.0,-999.0,93,-99.99,,,-99.99,,2013-01-09 07:11:00,
2013-01-09 07:22:00,56.0,54.0,30.18,SW,220,17.0,-999.0,93,-99.99,,,-99.99,,2013-01-09 07:22:00,
2013-01-09 07:32:00,56.0,54.0,30.18,SW,220,17.0,-999.0,93,-99.99,,,-99.99,,2013-01-09 07:32:00,
2013-01-09 07:42:00,56.0,54.0,30.18,SW,220,17.0,-999.0,93,-99.99,,,-99.99,,2013-01-09 07:42:00,
2013-01-09 07:52:00,56.0,54.0,30.18,SW,220,17.0,-999.0,93,-99.99,,,-99.99,,2013-01-09 07:52:00,
2013-01-09 08:00:00,56.0,54.0,30.18,SW,220,14.0,-999.0,93,-99.99,,,-99.99,,2013-01-09 08:00:00,
2013-01-09 08:11:00,56.0,54.0,30.18,SW,220,14.0,-999.0,93,-99.99,,,-99.99,,2013-01-09 08:11:00,
2013-01-09 08:22:00,56.0,54.0,30.18,SW,220,14.0,-999.0,93,-99.99,,,-99.99,,2013-01-09 08:22:00,
2013-01-09 08:32:00,56.0,54.0,30.18,SW,220,14.0,-999.0,93,-99.99,,,-99.99,,2013-01-09 08:32:00,
2013-01-09 08:42:00,56.0,54.0,30.18,SW,220,14.0,-999.0,93,-99.99,,,-99.99,,2013-01-09 08:42:00,
2013-01-09 08:52:00,56.0,54.0,30.18,SW,220,14.0,-999.0,93,-99.99,,,-99.99,,2013-01-09 08:52:00,
2013-01-09 09:00:00,56.0,54.0,30.19,SW,220,14.0,-999.0,92,-99.99,,,-99.99,,2013-01-09 09:00:00,
2013-01-09 09:22:00,56.0,54.0,30.19,SW,220,14.0,-999.0,92,-99.99,,,-99.99,,2013-01-09 09:22:00,
2013-01-09 09:32:00,56.0,54.0,30.19,SW,220,14.0,-999.0,92,-99.99,,,-99.99,,2013-01-09 09:32:00,
2013-01-09 09:42:00,56.0,54.0,30.19,SW,220,14.0,-999.0,92,-99.99,,,-99.99,,2013-01-09 09:42:00,
2013-01-09 09:52:00,56.0,54.0,30.19,SW,220,14.0,-999.0,92,-99.99,,,-99.99,,2013-01-09 09:52:00,
2013-01-09 10:00:00,56.0,53.0,30.19,SSW,210,15.0,-999.0,91,-99.99,,,-99.99,,2013-01-09 10:00:00,
2013-01-09 10:11:00,56.0,53.0,30.19,SSW,210,15.0,-999.0,91,-99.99,,,-99.99,,2013-01-09 10:11:00,
2013-01-09 10:22:00,56.0,53.0,30.19,SSW,210,15.0,-999.0,91,-99.99,,,-99.99,,2013-01-09 10:22:00,
2013-01-09 10:32:00,56.0,53.0,30.19,SSW,210,15.0,-999.0,91,-99.99,,,-99.99,,2013-01-09 10:32:00,
2013-01-09 10:42:00,56.0,53.0,30.19,SSW,210,15.0,-999.0,91,-99.99,,,-99.99,,2013-01-09 10:42:00,
2013-01-09 10:52:00,56.0,53.0,30.19,SSW,210,15.0,-999.0,91,-99.99,,,-99.99,,2013-01-09 10:52:00,
2013-01-09 11:00:00,56.0,53.0,30.19,SW,220,16.0,-999.0,91,-99.99,,,-99.99,,2013-01-09 11:00:00,
2013-01-09 11:11:00,56.0,53.0,30.19,SW,220,16.0,-999.0,91,-99.99,,,-99.99,,2013-01-09 11:11:00,
2013-01-09 11:22:00,56.0,53.0,30.19,SW,220,16.0,-999.0,91,-99.99,,,-99.99,,2013-01-09 11:22:00,
2013-01-09 11:32:00,56.0,53.0,30.19,SW,220,16.0,-999.0,91,-99.99,,,-99.99,,2013-01-09 11:32:00,
2013-01-09 11:42:00,56.0,53.0,30.19,SW,220,16.0,-999.0,91,-99.99,,,-99.99,,2013-01-09 11:42:00,
2013-01-09 11:52:00,56.0,53.0,30.19,SW,220,16.0,-999.0,91,-99.99,,,-99.99,,2013-01-09 11:52:00,
2013-01-09 12:00:00,57.0,54.0,30.16,WSW,240,13.0,-999.0,89,-99.99,,,-99.99,,2013-01-09 12:00:00,
2013-01-09 12:12:00,57.0,54.0,30.16,WSW,240,13.0,-999.0,89,-99.99,,,-99.99,,2013-01-09 12:12:00,
2013-01-09 12:22:00,57.0,54.0,30.16,WSW,240,13.0,-999.0,89,-99.99,,,-99.99,,2013-01-09 12:22:00,
2013-01-09 12:32:00,57.0,54.0,30.16,WSW,240,13.0,-999.0,89,-99.99,,,-99.99,,2013-01-09 12:32:00,
2013-01-09 12:42:00,57.0,54.0,30.16,WSW,240,13.0,-999.0,89,-99.99,,,-99.99,,2013-01-09 12:42:00,
2013-01-09 12:52:00,57.0,54.0,30.16,WSW,240,13.0,-999.0,89,-99.99,,,-99.99,,2013-01-09 12:52:00,
2013-01-09 13:00:00,57.0,53.0,30.14,WSW,240,14.0,-999.0,87,-99.99,,,-99.99,,2013-01-09 13:00:00,
2013-01-09 13:11:00,57.0,53.0,30.14,WSW,240,14.0,-999.0,87,-99.99,,,-99.99,,2013-01-09 13:11:00,
2013-01-09 13:22:00,57.0,53.0,30.14,WSW,240,14.0,-999.0,87,-99.99,,,-99.99,,2013-01-09 13:22:00,
2013-01-09 13:32:00,57.0,53.0,30.14,WSW,240,14.0,-999.0,87,-99.99,,,-99.99,,2013-01-09 13:32:00,
2013-01-09 13:42:00,57.0,53.0,30.14,WSW,240,14.0,-999.0,87,-99.99,,,-99.99,,2013-01-09 13:42:00,
2013-01-09 13:52:00,57.0,53.0,30.14,WSW,240,14.0,-999.0,87,-99.99,,,-99.99,,2013-01-09 13:52:00,
2013-01-09 14:00:00,57.0,53.0,30.14,WSW,240,16.0,-999.0,88,-99.99,,,-99.99,,2013-01-09 14:00:00,
2013-01-09 14:12:00,57.0,53.0,30.14,WSW,240,16.0,-999.0,88,-99.99,,,-99.99,,2013-01-09 14:12:00,
2013-01-09 14:22:00,57.0,53.0,30.14,WSW,240,16.0,-999.0,88,-99.99,,,-99.99,,2013-01-09 14:22:00,
2013-01-09 14:32:00,57.0,53.0,30.14,WSW,240,16.0,-999.0,88,-99.99,,,-99.99,,2013-01-09 14:32:00,
2013-01-09 14:42:00,57.0,53.0,30.14,WSW,240,16.0,-999.0,88,-99.99,,,-99.99,,2013-01-09 14:42:00,
2013-01-09 14:52:00,57.0,53.0,30.14,WSW,240,16.0,-999.0,88,-99.99,,,-99.99,,2013-01-09 14:52:00,
2013-01-09 15:00:00,56.0,54.0,30.14,WSW,250,11.0,-999.0,92,-99.99,,,-99.99,,2013-01-09 15:00:00,
2013-01-09 15:22:00,56.0,54.0,30.14,WSW,250,11.0,-999.0,92,-99.99,,,-99.99,,2013-01-09 15:22:00,
2013-01-09 15:32:00,56.0,54.0,30.14,WSW,250,11.0,-999.0,92,-99.99,,,-99.99,,2013-01-09 15:32:00,
2013-01-09 15:42:00,56.0,54.0,30.14,WSW,250,11.0,-999.0,92,-99.99,,,-99.99,,2013-01-09 15:42:00,
2013-01-09 15:52:00,56.0,54.0,30.14,WSW,250,11.0,-999.0,92,-99.99,,,-99.99,,2013-01-09 15:52:00,
2013-01-09 16:00:00,55.0,53.0,30.14,WSW,250,8.0,-999.0,93,-99.99,,,-99.99,,2013-01-09 16:00:00,
2013-01-09 16:11:00,55.0,53.0,30.14,WSW,250,8.0,-999.0,93,-99.99,,,-99.99,,2013-01-09 16:11:00,
2013-01-09 16:22:00,55.0,53.0,30.14,WSW,250,8.0,-999.0,93,-99.99,,,-99.99,,2013-01-09 16:22:00,
2013-01-09 16:32:00,55.0,53.0,30.14,WSW,250,8.0,-999.0,93,-99.99,,,-99.99,,2013-01-09 16:32:00,
2013-01-09 16:42:00,55.0,53.0,30.14,WSW,250,8.0,-999.0,93,-99.99,,,-99.99,,2013-01-09 16:42:00,
2013-01-09 16:52:00,55.0,53.0,30.14,WSW,250,8.0,-999.0,93,-99.99,,,-99.99,,2013-01-09 16:52:00,
2013-01-09 17:00:00,55.0,53.0,30.15,West,260,8.0,-999.0,94,-99.99,,,-99.99,,2013-01-09 17:00:00,
2013-01-09 17:11:00,55.0,53.0,30.15,West,260,8.0,-999.0,94,-99.99,,,-99.99,,2013-01-09 17:11:00,
2013-01-09 17:22:00,55.0,53.0,30.15,West,260,8.0,-999.0,94,-99.99,,,-99.99,,2013-01-09 17:22:00,
2013-01-09 17:32:00,55.0,53.0,30.15,West,260,8.0,-999.0,94,-99.99,,,-99.99,,2013-01-09 17:32:00,
2013-01-09 17:42:00,55.0,53.0,30.15,West,260,8.0,-999.0,94,-99.99,,,-99.99,,2013-01-09 17:42:00,
2013-01-09 17:52:00,55.0,53.0,30.15,West,260,8.0,-999.0,94,-99.99,,,-99.99,,2013-01-09 17:52:00,
2013-01-09 18:00:00,54.0,53.0,30.14,West,280,9.0,-999.0,94,-99.99,,,-99.99,,2013-01-09 18:00:00,
2013-01-09 18:12:00,54.0,53.0,30.14,West,280,9.0,-999.0,94,-99.99,,,-99.99,,2013-01-09 18:12:00,
2013-01-09 18:22:00,54.0,53.0,30.14,West,280,9.0,-999.0,94,-99.99,,,-99.99,,2013-01-09 18:22:00,
2013-01-09 18:32:00,54.0,53.0,30.14,West,280,9.0,-999.0,94,-99.99,,,-99.99,,2013-01-09 18:32:00,
2013-01-09 18:42:00,54.0,53.0,30.14,West,280,9.0,-999.0,94,-99.99,,,-99.99,,2013-01-09 18:42:00,
2013-01-09 18:52:00,54.0,53.0,30.14,West,280,9.0,-999.0,94,-99.99,,,-99.99,,2013-01-09 18:52:00,
2013-01-09 20:00:00,54.0,53.0,30.14,West,280,14.0,-999.0,93,-99.99,,,-99.99,,2013-01-09 20:00:00,
2013-01-09 20:11:00,54.0,53.0,30.14,West,280,14.0,-999.0,93,-99.99,,,-99.99,,2013-01-09 20:11:00,
2013-01-09 20:22:00,54.0,53.0,30.14,West,280,14.0,-999.0,93,-99.99,,,-99.99,,2013-01-09 20:22:00,
2013-01-09 20:32:00,54.0,53.0,30.14,West,280,14.0,-999.0,93,-99.99,,,-99.99,,2013-01-09 20:32:00,
2013-01-09 20:42:00,54.0,53.0,30.14,West,280,14.0,-999.0,93,-99.99,,,-99.99,,2013-01-09 20:42:00,
2013-01-09 20:52:00,54.0,53.0,30.14,West,280,14.0,-999.0,93,-99.99,,,-99.99,,2013-01-09 20:52:00,
2013-01-09 21:00:00,54.0,52.0,30.14,West,280,14.0,-999.0,90,-99.99,,,-99.99,,2013-01-09 21:00:00,
2013-01-09 21:22:00,54.0,52.0,30.14,West,280,14.0,-999.0,90,-99.99,,,-99.99,,2013-01-09 21:22:00,
2013-01-09 21:32:00,54.0,52.0,30.14,West,280,14.0,-999.0,90,-99.99,,,-99.99,,2013-01-09 21:32:00,
2013-01-09 21:42:00,54.0,52.0,30.14,West,280,14.0,-999.0,90,-99.99,,,-99.99,,2013-01-09 21:42:00,
2013-01-09 21:52:00,54.0,52.0,30.14,West,280,14.0,-999.0,90,-99.99,,,-99.99,,2013-01-09 21:52:00,
2013-01-09 22:00:00,54.0,52.0,30.13,West,280,13.0,-999.0,91,-99.99,,,-99.99,,2013-01-09 22:00:00,
2013-01-09 22:12:00,54.0,52.0,30.13,West,280,13.0,-999.0,91,-99.99,,,-99.99,,2013-01-09 22:12:00,
2013-01-09 22:22:00,54.0,52.0,30.13,West,280,13.0,-999.0,91,-99.99,,,-99.99,,2013-01-09 22:22:00,
2013-01-09 22:32:00,54.0,52.0,30.13,West,280,13.0,-999.0,91,-99.99,,,-99.99,,2013-01-09 22:32:00,
2013-01-09 22:42:00,54.0,52.0,30.13,West,280,13.0,-999.0,91,-99.99,,,-99.99,,2013-01-09 22:42:00,
2013-01-09 22:52:00,54.0,52.0,30.13,West,280,13.0,-999.0,91,-99.99,,,-99.99,,2013-01-09 22:52:00,
2013-01-09 23:00:00,55.0,52.0,30.12,West,270,13.0,-999.0,89,-99.99,,,-99.99,,2013-01-09 23:00:00,
2013-01-09 23:12:00,55.0,52.0,30.12,West,270,13.0,-999.0,89,-99.99,,,-99.99,,2013-01-09 23:12:00,
2013-01-09 23:22:00,55.0,52.0,30.12,West,270,13.0,-999.0,89,-99.99,,,-99.99,,2013-01-09 23:22:00,
2013-01-09 23:32:00,55.0,52.0,30.12,West,270,13.0,-999.0,89,-99.99,,,-99.99,,2013-01-09 23:32:00,
2013-01-09 23:42:00,55.0,52.0,30.12,West,270,13.0,-999.0,89,-99.99,,,-99.99,,2013-01-09 23:42:00,
2013-01-09 23:52:00,55.0,52.0,30.12,West,270,13.0,-999.0,89,-99.99,,,-99.99,,2013-01-09 23:52:00,